Вернуться в каталог

THORAD DELTA 1 DEB

АктивенLEO
NORAD 42628·DEBRIS·🇺🇸 United States

Запущен Nov 15, 1974 с Vandenberg Space Force Base

Loading…

Ближайшие Пролёты (ближайшие 24 часа)

TLE

УстаревающийSource: Space-Track

Эпоха: Sep 8, 2026, 22:04 UTC

1 42628U 74089GV  26251.91980753 -.00000254  00000-0 -22308-2 0  9998
2 42628 101.1407 118.2924 0258105 305.0731  52.6358 12.06961486522916

Отслеживайте THORAD DELTA 1 DEB в реальном времени с AllMySat

Download on the App Store